OPS 4947 (TRANSIT 17) (2965 NORAD) Tracking and Keplerian Element Data

This shows tracking and keplerian element data for the satellite.

Feedback or suggestion? Click here.




ElementValue
Catalog2965
NameOPS 4947 (TRANSIT 17)
Epoch Orbit82875
Epoch Day34.60955976
Epoch Year2025
RAAN48.362
Inclination89.2337
Eccentricity0.0049499
Argument of Perigee63.6316
Mean Anonmoly52.2575
Mean Motion13.53355939
Decay Rate2.11E-06
L11 02965U 67092A 25034.60955976 .00000211 00000+0 29489-3 0 9995
L22 02965 89.2337 48.3620 0049499 63.6316 52.2575 13.53355939828751



Live tracking and technical data element details for OPS 4947 (TRANSIT 17) (NORAD 2965). OPS 4947 (TRANSIT 17) can be tracked NOW for your location showing map with azimuth and elevation plus other details from your city location.







IsCatalogInMostPopularTable: catalog: 2965, numindb: 330
Update: records affected: 1



GetName: 2965 OPS 4947 (TRANSIT 17)

Hit Count: updated at: Thu, 15 May 2025 09:43:05 GMT